DELTA 1 R/B, 3616

Orbit data source: Space-Track

DELTA 1 R/B, 3616 is space debris in SSO originally from a launch on Sun, 15 Dec 1968 UTC launched from the Air Force Western Test Range (AFWTR). Debris objects in space refer to the collection of defunct objects orbiting the Earth. Examples of debris include non-operational satellites, rocket bodies, and fragments generated from explosions, collisions, or faulty payload assembly.

Loading next visibility...
Identifier
3616, 1968-114B
Orbit
SSO
Country
Flag of USUS
Related business
Manufacturer
Aerojet
Mission
Spacecraft
Bus & Motor
ABLESTAR, Unknown motor
Mass
~785 kg wet, ~785 kg dry
Launch date (UTC)
1968-12-15 (57 years ago)
Launch vehicle
Unknown
Launch site
Air Force Western Test Range (AFWTR)
Object type
Payload
Rocket body
Debris
Shape & HBR
Unknown
Radar Cross Section
Large (>1 m²)

Expand to show TLE details & history
Last TLE update: 9 hours ago

TLE from 9 hours ago
0 DELTA 1 R/B
1 03616U 68114B   25349.81409189 -.00000037  00000-0  44431-4 0  9990
2 03616 101.6626 294.8014 0013671  18.9878  36.4382 12.51398544605668
Epoch: 2025-12-15T19:32Z
TLE epoch observation values (Epoch: 2025-12-15T19:32:17.539Z)
Latitude
53.9274°
Longitude
-99.35555°
Altitude
1,458.689 km
Speed
7.142 km/s
True Right ascension
18h 33m 41s
True Declination
53° 46' 42"
Sunlit
Object was in daylight at epoch
Visualization orbit readout
Latitude
Unknown
Longitude
Unknown
Altitude
Unknown
Speed
Unknown
Apparent Right ascension
Unknown
Apparent Declination
Unknown
Sunlit
N/A
Visualization observer readout
Local Sidereal Time
03:26:42
Azimuth
Unknown
Elevation
Unknown
Doppler factor
Unknown
Orbital elements
Apogee altitude
1,466.901 km
Perigee altitude
1,445.48 km
Semi-major axis
7,834.328 km
Eccentricity
0.00137
Inclination
101.6626°
RAAN
294.8014°
Arg. of periapsis
18.9878°
True anomaly
36.53138°
Mean anomaly
36.4382°
Eccentric anomaly
36.48478°
Mean motion
3.12997 °/min
Orbital period
115.02 mins
BSTAR
0.000044431
Loading maneuver chart data...
Computing Atmospheric mass density...
Loading historical data...
Loading historical data...
Loading historical data...
Loading historical data...
Loading historical data...
Loading historical data...
Loading historical data...

Documentation

Showing up to 5 results
|